When you browse on this site, cookies collect data to enhance your experience and personalize the content and advertising you see.
Visit our Privacy Policy to learn more. By continuing to use the site, you agree to this use of cookies and data.
  • In Switzerland
  • List of Countries
  • For 7 days
  • Water Temperature
  • Weather Map
  • Weather Widgets
  • user-avatar
    Login

    Hourly Weather Lehrte

    Today, 7 June, Sunday

    Time Temperature Precipitation Wind Pressure Humidity
    00:00 +9°C° 0 mm 2 mps 747 mmHg 73%
    01:00 +10°C° 0 mm 2 mps 747 mmHg 70%
    02:00 +9°C° 0 mm 2 mps 747 mmHg 72%
    03:00 +9°C° 0 mm 2 mps 747 mmHg 74%
    04:00 +9°C° 0 mm 3 mps 747 mmHg 77%
    05:00 +10°C° 0 mm 3 mps 747 mmHg 74%
    06:00 +11°C° 0 mm 4 mps 747 mmHg 72%
    07:00 +13°C° 0 mm 4 mps 747 mmHg 69%
    08:00 +14°C° 0 mm 4 mps 748 mmHg 66%
    09:00 +15°C° 0 mm 5 mps 748 mmHg 62%
    10:00 +16°C° 0 mm 5 mps 748 mmHg 58%
    11:00 +17°C° 0.2 mm 5 mps 748 mmHg 57%
    12:00 +17°C° 0.2 mm 5 mps 748 mmHg 56%
    13:00 +17°C° 0.2 mm 5 mps 749 mmHg 56%
    14:00 +17°C° 0.1 mm 5 mps 749 mmHg 57%
    15:00 +17°C° 0.1 mm 5 mps 749 mmHg 58%
    16:00 +17°C° 0.1 mm 5 mps 749 mmHg 60%
    17:00 +17°C° 0.1 mm 4 mps 750 mmHg 64%
    18:00 +17°C° 0.1 mm 3 mps 750 mmHg 69%
    19:00 +16°C° 0.1 mm 2 mps 751 mmHg 73%
    20:00 +15°C° 0 mm 2 mps 751 mmHg 77%
    21:00 +13°C° 0 mm 1 mps 752 mmHg 81%
    22:00 +12°C° 0 mm 1 mps 752 mmHg 85%
    23:00 +11°C° 0 mm 1 mps 752 mmHg 86%

    Tomorrow, 8 June, Monday

    Time Temperature Precipitation Wind Pressure Humidity
    00:00 +10°C° 0 mm 1 mps 752 mmHg 87%
    01:00 +8°C° 0 mm 0 mps 752 mmHg 88%
    02:00 +8°C° 0 mm 0 mps 753 mmHg 89%
    03:00 +8°C° 0 mm 0 mps 753 mmHg 89%
    04:00 +7°C° 0 mm 0 mps 753 mmHg 90%
    05:00 +9°C° 0 mm 0 mps 753 mmHg 85%
    06:00 +11°C° 0 mm 0 mps 753 mmHg 81%
    07:00 +12°C° 0 mm 0 mps 753 mmHg 76%
    08:00 +14°C° 0.1 mm 0 mps 754 mmHg 72%
    09:00 +16°C° 0.1 mm 1 mps 754 mmHg 67%
    10:00 +19°C° 0.1 mm 1 mps 754 mmHg 63%
    11:00 +19°C° 0.1 mm 1 mps 754 mmHg 61%
    12:00 +20°C° 0.1 mm 1 mps 754 mmHg 60%
    13:00 +20°C° 0.1 mm 1 mps 754 mmHg 59%
    14:00 +21°C° 0.2 mm 1 mps 753 mmHg 57%
    15:00 +21°C° 0.2 mm 1 mps 753 mmHg 56%
    16:00 +21°C° 0.2 mm 1 mps 753 mmHg 55%
    17:00 +21°C° 0.4 mm 1 mps 753 mmHg 61%
    18:00 +20°C° 0.4 mm 1 mps 754 mmHg 68%
    19:00 +17°C° 0.4 mm 0 mps 754 mmHg 74%
    20:00 +16°C° 0.1 mm 1 mps 754 mmHg 77%
    21:00 +15°C° 0.1 mm 1 mps 755 mmHg 81%
    22:00 +13°C° 0.1 mm 1 mps 755 mmHg 84%
    23:00 +13°C° 0 mm 1 mps 755 mmHg 86%

    Day after tomorrow, 9 June, Tuesday

    Time Temperature Precipitation Wind Pressure Humidity
    00:00 +12°C° 0 mm 1 mps 755 mmHg 88%
    01:00 +11°C° 0 mm 1 mps 755 mmHg 89%
    02:00 +11°C° 0 mm 1 mps 755 mmHg 90%
    03:00 +10°C° 0 mm 1 mps 756 mmHg 91%
    04:00 +10°C° 0 mm 1 mps 756 mmHg 92%
    05:00 +11°C° 0 mm 1 mps 756 mmHg 90%
    06:00 +13°C° 0 mm 1 mps 756 mmHg 87%
    07:00 +14°C° 0 mm 1 mps 756 mmHg 84%
    08:00 +16°C° 0 mm 1 mps 756 mmHg 78%
    09:00 +18°C° 0 mm 1 mps 757 mmHg 72%
    10:00 +20°C° 0 mm 1 mps 757 mmHg 66%
    11:00 +20°C° 0.4 mm 2 mps 757 mmHg 66%
    12:00 +20°C° 0.4 mm 2 mps 757 mmHg 65%
    13:00 +21°C° 0.4 mm 2 mps 757 mmHg 65%
    14:00 +20°C° 0.6 mm 2 mps 756 mmHg 67%
    15:00 +20°C° 0.6 mm 2 mps 756 mmHg 69%
    16:00 +20°C° 0.6 mm 2 mps 756 mmHg 72%
    17:00 +19°C° 0.5 mm 2 mps 756 mmHg 76%
    18:00 +18°C° 0.5 mm 2 mps 756 mmHg 80%
    19:00 +18°C° 0.5 mm 2 mps 757 mmHg 85%
    20:00 +16°C° 0.2 mm 2 mps 757 mmHg 87%
    21:00 +15°C° 0.2 mm 2 mps 757 mmHg 90%
    22:00 +14°C° 0.2 mm 2 mps 758 mmHg 92%
    23:00 +14°C° 0 mm 2 mps 758 mmHg 93%

    10 June, Wednesday

    Time Temperature Precipitation Wind Pressure Humidity
    00:00 +13°C° 0 mm 2 mps 758 mmHg 94%
    01:00 +12°C° 0 mm 2 mps 758 mmHg 95%
    02:00 +12°C° 0 mm 2 mps 758 mmHg 96%
    03:00 +12°C° 0 mm 1 mps 758 mmHg 96%
    04:00 +11°C° 0 mm 1 mps 757 mmHg 96%
    05:00 +12°C° 0 mm 2 mps 757 mmHg 94%
    06:00 +13°C° 0 mm 2 mps 757 mmHg 91%
    07:00 +13°C° 0 mm 2 mps 757 mmHg 89%
    08:00 +15°C° 0 mm 2 mps 757 mmHg 81%
    09:00 +16°C° 0 mm 2 mps 757 mmHg 73%
    10:00 +17°C° 0 mm 2 mps 757 mmHg 65%
    11:00 +18°C° 0 mm 2 mps 757 mmHg 61%
    12:00 +19°C° 0 mm 3 mps 757 mmHg 58%
    13:00 +20°C° 0 mm 3 mps 756 mmHg 54%
    14:00 +21°C° 0 mm 3 mps 756 mmHg 55%
    15:00 +21°C° 0 mm 3 mps 756 mmHg 55%
    16:00 +21°C° 0 mm 3 mps 756 mmHg 56%
    17:00 +20°C° 0.1 mm 3 mps 756 mmHg 62%
    18:00 +19°C° 0.1 mm 3 mps 755 mmHg 68%
    19:00 +18°C° 0.1 mm 3 mps 755 mmHg 75%
    20:00 +17°C° 0.2 mm 3 mps 756 mmHg 79%
    21:00 +16°C° 0.2 mm 3 mps 756 mmHg 83%
    22:00 +14°C° 0.2 mm 3 mps 756 mmHg 87%
    23:00 +14°C° 0.1 mm 3 mps 756 mmHg 88%

    11 June, Thursday

    Time Temperature Precipitation Wind Pressure Humidity
    00:00 +13°C° 0.1 mm 3 mps 756 mmHg 89%
    01:00 +13°C° 0.1 mm 3 mps 755 mmHg 90%
    02:00 +12°C° 0.2 mm 3 mps 755 mmHg 91%
    03:00 +12°C° 0.2 mm 3 mps 755 mmHg 92%
    04:00 +12°C° 0.2 mm 3 mps 755 mmHg 94%
    05:00 +12°C° 0.1 mm 3 mps 755 mmHg 94%
    06:00 +13°C° 0.1 mm 2 mps 755 mmHg 94%
    07:00 +13°C° 0.1 mm 2 mps 755 mmHg 94%
    08:00 +13°C° 0.1 mm 2 mps 755 mmHg 93%
    09:00 +12°C° 0.1 mm 3 mps 755 mmHg 93%
    10:00 +12°C° 0.1 mm 3 mps 755 mmHg 92%
    11:00 +12°C° 0 mm 3 mps 755 mmHg 90%
    12:00 +13°C° 0 mm 3 mps 755 mmHg 88%
    13:00 +13°C° 0 mm 4 mps 755 mmHg 86%
    14:00 +13°C° 0 mm 3 mps 754 mmHg 85%
    15:00 +13°C° 0 mm 3 mps 754 mmHg 85%
    16:00 +13°C° 0 mm 3 mps 754 mmHg 84%
    17:00 +14°C° 0 mm 2 mps 754 mmHg 85%
    18:00 +14°C° 0 mm 2 mps 753 mmHg 86%
    19:00 +14°C° 0 mm 2 mps 753 mmHg 87%
    20:00 +14°C° 0 mm 1 mps 753 mmHg 89%
    21:00 +13°C° 0 mm 1 mps 753 mmHg 92%
    22:00 +13°C° 0 mm 1 mps 753 mmHg 95%
    23:00 +13°C° 0 mm 1 mps 753 mmHg 95%

    12 June, Friday

    Time Temperature Precipitation Wind Pressure Humidity
    00:00 +14°C° 0 mm 1 mps 753 mmHg 96%
    01:00 +14°C° 0 mm 1 mps 752 mmHg 96%
    02:00 +14°C° 0 mm 1 mps 752 mmHg 96%
    03:00 +14°C° 0 mm 1 mps 752 mmHg 97%
    04:00 +14°C° 0 mm 1 mps 751 mmHg 97%
    05:00 +14°C° 0 mm 1 mps 751 mmHg 96%
    06:00 +15°C° 0 mm 1 mps 752 mmHg 94%
    07:00 +16°C° 0 mm 1 mps 752 mmHg 92%
    08:00 +16°C° 0 mm 1 mps 751 mmHg 90%
    09:00 +18°C° 0 mm 1 mps 751 mmHg 87%
    10:00 +18°C° 0 mm 2 mps 751 mmHg 84%
    11:00 +19°C° 0 mm 2 mps 751 mmHg 80%
    12:00 +20°C° 0 mm 2 mps 750 mmHg 76%
    13:00 +21°C° 0 mm 2 mps 750 mmHg 72%
    14:00 +22°C° 0 mm 3 mps 750 mmHg 71%
    15:00 +22°C° 0 mm 3 mps 750 mmHg 70%
    16:00 +24°C° 0 mm 3 mps 749 mmHg 69%
    17:00 +24°C° 0 mm 3 mps 749 mmHg 72%
    18:00 +22°C° 0 mm 3 mps 749 mmHg 76%
    19:00 +22°C° 0 mm 3 mps 749 mmHg 79%
    20:00 +20°C° 0 mm 3 mps 749 mmHg 84%
    21:00 +19°C° 0 mm 3 mps 749 mmHg 89%
    22:00 +17°C° 0 mm 3 mps 750 mmHg 94%
    23:00 +17°C° 0 mm 3 mps 749 mmHg 95%
    Show more